Year,Month,Day,Hour,Minute,Value (Times are PST for temperature in C)
2012,10,08,00,00,9.50
2012,10,08,00,01,9.40
2012,10,08,00,02,9.50
2012,10,08,00,03,9.40
2012,10,08,00,04,9.40
2012,10,08,00,05,9.40
2012,10,08,00,06,9.40
2012,10,08,00,07,9.40
2012,10,08,00,08,9.40
2012,10,08,00,09,9.30
2012,10,08,00,10,9.30
2012,10,08,00,11,9.30
2012,10,08,00,12,9.30
2012,10,08,00,13,9.20
2012,10,08,00,14,9.20
2012,10,08,00,15,9.20
2012,10,08,00,16,9.20
2012,10,08,00,17,9.10
2012,10,08,00,18,9.10
2012,10,08,00,19,9.10
2012,10,08,00,20,9.00
2012,10,08,00,21,9.00
2012,10,08,00,22,9.00
2012,10,08,00,23,9.10
2012,10,08,00,24,9.10
2012,10,08,00,25,9.10
2012,10,08,00,26,9.10
2012,10,08,00,27,9.10
2012,10,08,00,28,9.10
2012,10,08,00,29,9.10
2012,10,08,00,30,9.10
2012,10,08,00,31,9.10
2012,10,08,00,32,9.10
2012,10,08,00,33,9.00
2012,10,08,00,34,9.00
2012,10,08,00,35,9.00
2012,10,08,00,36,8.90
2012,10,08,00,37,8.90
2012,10,08,00,38,8.90
2012,10,08,00,39,8.90
2012,10,08,00,40,8.90
2012,10,08,00,41,8.80
2012,10,08,00,42,8.80
2012,10,08,00,43,8.80
2012,10,08,00,44,8.80
2012,10,08,00,45,8.70
2012,10,08,00,46,8.70
2012,10,08,00,47,8.70
2012,10,08,00,48,8.60
2012,10,08,00,49,8.60
2012,10,08,00,50,8.60
2012,10,08,00,51,8.50
2012,10,08,00,52,8.50
2012,10,08,00,53,8.50
2012,10,08,00,54,8.50
2012,10,08,00,55,8.50
2012,10,08,00,56,8.50
2012,10,08,00,57,8.50
2012,10,08,00,58,8.50
2012,10,08,00,59,8.40
2012,10,08,01,00,8.40
2012,10,08,01,01,8.40
2012,10,08,01,02,8.40
2012,10,08,01,03,8.40
2012,10,08,01,04,8.40
2012,10,08,01,05,8.40
2012,10,08,01,06,8.40
2012,10,08,01,07,8.40
2012,10,08,01,08,8.40
2012,10,08,01,09,8.40
2012,10,08,01,10,8.40
2012,10,08,01,11,8.40
2012,10,08,01,12,8.40
2012,10,08,01,13,8.40
2012,10,08,01,14,8.40
2012,10,08,01,15,8.30
2012,10,08,01,16,8.30
2012,10,08,01,17,8.30
2012,10,08,01,18,8.30
2012,10,08,01,19,8.30
2012,10,08,01,20,8.30
2012,10,08,01,21,8.30
2012,10,08,01,22,8.20
2012,10,08,01,23,8.10
2012,10,08,01,24,8.10
2012,10,08,01,25,8.10
2012,10,08,01,26,8.00
2012,10,08,01,27,8.00
2012,10,08,01,28,8.00
2012,10,08,01,29,7.90
2012,10,08,01,30,7.90
2012,10,08,01,31,7.90
2012,10,08,01,32,7.90
2012,10,08,01,33,7.90
2012,10,08,01,34,7.90
2012,10,08,01,35,7.90
2012,10,08,01,36,7.90
2012,10,08,01,37,7.80
2012,10,08,01,38,7.80
2012,10,08,01,39,7.80
2012,10,08,01,40,7.80
2012,10,08,01,41,7.70
2012,10,08,01,42,7.70
2012,10,08,01,43,7.70
2012,10,08,01,44,7.70
2012,10,08,01,45,7.60
2012,10,08,01,46,7.60
2012,10,08,01,47,7.60
2012,10,08,01,48,7.60
2012,10,08,01,49,7.60
2012,10,08,01,50,7.60
2012,10,08,01,51,7.60
2012,10,08,01,52,7.60
2012,10,08,01,53,7.50
2012,10,08,01,54,7.60
2012,10,08,01,55,7.50
2012,10,08,01,56,7.50
2012,10,08,01,57,7.50
2012,10,08,01,58,7.50
2012,10,08,01,59,7.40
2012,10,08,02,00,7.40
2012,10,08,02,01,7.40
2012,10,08,02,02,7.40
2012,10,08,02,03,7.40
2012,10,08,02,04,7.40
2012,10,08,02,05,7.40
2012,10,08,02,06,7.40
2012,10,08,02,07,7.40
2012,10,08,02,08,7.40
2012,10,08,02,09,7.40
2012,10,08,02,10,7.30
2012,10,08,02,11,7.30
2012,10,08,02,12,7.30
2012,10,08,02,13,7.30
2012,10,08,02,14,7.30
2012,10,08,02,15,7.30
2012,10,08,02,16,7.30
2012,10,08,02,17,7.30
2012,10,08,02,18,7.30
2012,10,08,02,19,7.20
2012,10,08,02,20,7.20
2012,10,08,02,21,7.20
2012,10,08,02,22,7.20
2012,10,08,02,23,7.20
2012,10,08,02,24,7.20
2012,10,08,02,25,7.20
2012,10,08,02,26,7.20
2012,10,08,02,27,7.20
2012,10,08,02,28,7.20
2012,10,08,02,29,7.20
2012,10,08,02,30,7.20
2012,10,08,02,31,7.20
2012,10,08,02,32,7.20
2012,10,08,02,33,7.20
2012,10,08,02,34,7.20
2012,10,08,02,35,7.20
2012,10,08,02,36,7.20
2012,10,08,02,37,7.20
2012,10,08,02,38,7.20
2012,10,08,02,39,7.20
2012,10,08,02,40,7.20
2012,10,08,02,41,7.20
2012,10,08,02,42,7.20
2012,10,08,02,43,7.20
2012,10,08,02,44,7.20
2012,10,08,02,45,7.20
2012,10,08,02,46,7.20
2012,10,08,02,47,7.20
2012,10,08,02,48,7.10
2012,10,08,02,49,7.10
2012,10,08,02,50,7.10
2012,10,08,02,51,7.10
2012,10,08,02,52,7.10
2012,10,08,02,53,7.10
2012,10,08,02,54,7.10
2012,10,08,02,55,7.00
2012,10,08,02,56,7.00
2012,10,08,02,57,7.00
2012,10,08,02,58,7.00
2012,10,08,02,59,7.00
2012,10,08,03,00,6.90
2012,10,08,03,01,6.90
2012,10,08,03,02,6.90
2012,10,08,03,03,6.90
2012,10,08,03,04,6.90
2012,10,08,03,05,6.80
2012,10,08,03,06,6.80
2012,10,08,03,07,6.80
2012,10,08,03,08,6.80
2012,10,08,03,09,6.80
2012,10,08,03,10,6.80
2012,10,08,03,11,6.80
2012,10,08,03,12,6.70
2012,10,08,03,13,6.70
2012,10,08,03,14,6.70
2012,10,08,03,15,6.70
2012,10,08,03,16,6.70
2012,10,08,03,17,6.70
2012,10,08,03,18,6.70
2012,10,08,03,19,6.70
2012,10,08,03,20,6.70
2012,10,08,03,21,6.70
2012,10,08,03,22,6.70
2012,10,08,03,23,6.70
2012,10,08,03,24,6.60
2012,10,08,03,25,6.60
2012,10,08,03,26,6.60
2012,10,08,03,27,6.60
2012,10,08,03,28,6.60
2012,10,08,03,29,6.60
2012,10,08,03,30,6.50
2012,10,08,03,31,6.50
2012,10,08,03,32,6.50
2012,10,08,03,33,6.50
2012,10,08,03,34,6.40
2012,10,08,03,35,6.40
2012,10,08,03,36,6.40
2012,10,08,03,37,6.40
2012,10,08,03,38,6.30
2012,10,08,03,39,6.30
2012,10,08,03,40,6.30
2012,10,08,03,41,6.30
2012,10,08,03,42,6.30
2012,10,08,03,43,6.30
2012,10,08,03,44,6.30
2012,10,08,03,45,6.20
2012,10,08,03,46,6.20
2012,10,08,03,47,6.20
2012,10,08,03,48,6.20
2012,10,08,03,49,6.20
2012,10,08,03,50,6.20
2012,10,08,03,51,6.20
2012,10,08,03,52,6.10
2012,10,08,03,53,6.10
2012,10,08,03,54,6.10
2012,10,08,03,55,6.10
2012,10,08,03,56,6.10
2012,10,08,03,57,6.10
2012,10,08,03,58,6.20
2012,10,08,03,59,6.10
2012,10,08,04,00,6.10
2012,10,08,04,01,6.10
2012,10,08,04,02,6.10
2012,10,08,04,03,6.10
2012,10,08,04,04,6.10
2012,10,08,04,05,6.10
2012,10,08,04,06,6.10
2012,10,08,04,07,6.10
2012,10,08,04,08,6.10
2012,10,08,04,09,6.10
2012,10,08,04,10,6.10
2012,10,08,04,11,6.10
2012,10,08,04,12,6.10
2012,10,08,04,13,6.10
2012,10,08,04,14,6.10
2012,10,08,04,15,6.10
2012,10,08,04,16,6.10
2012,10,08,04,17,6.10
2012,10,08,04,18,6.10
2012,10,08,04,19,6.10
2012,10,08,04,20,6.20
2012,10,08,04,21,6.10
2012,10,08,04,22,6.10
2012,10,08,04,23,6.10
2012,10,08,04,24,6.10
2012,10,08,04,25,6.10
2012,10,08,04,26,6.10
2012,10,08,04,27,6.10
2012,10,08,04,28,6.00
2012,10,08,04,29,6.00
2012,10,08,04,30,6.00
2012,10,08,04,31,6.00
2012,10,08,04,32,5.90
2012,10,08,04,33,5.90
2012,10,08,04,34,5.90
2012,10,08,04,35,5.90
2012,10,08,04,36,5.90
2012,10,08,04,37,5.90
2012,10,08,04,38,5.80
2012,10,08,04,39,5.80
2012,10,08,04,40,5.80
2012,10,08,04,41,5.80
2012,10,08,04,42,5.80
2012,10,08,04,43,5.80
2012,10,08,04,44,5.80
2012,10,08,04,45,5.80
2012,10,08,04,46,5.70
2012,10,08,04,47,5.70
2012,10,08,04,48,5.70
2012,10,08,04,49,5.70
2012,10,08,04,50,5.70
2012,10,08,04,51,5.70
2012,10,08,04,52,5.70
2012,10,08,04,53,5.70
2012,10,08,04,54,5.70
2012,10,08,04,55,5.70
2012,10,08,04,56,5.70
2012,10,08,04,57,5.70
2012,10,08,04,58,5.60
2012,10,08,04,59,5.60
2012,10,08,05,00,5.60
2012,10,08,05,01,5.60
2012,10,08,05,02,5.60
2012,10,08,05,03,5.60
2012,10,08,05,04,5.60
2012,10,08,05,05,5.60
2012,10,08,05,06,5.50
2012,10,08,05,07,5.50
2012,10,08,05,08,5.50
2012,10,08,05,09,5.50
2012,10,08,05,10,5.50
2012,10,08,05,11,5.40
2012,10,08,05,12,5.40
2012,10,08,05,13,5.40
2012,10,08,05,14,5.40
2012,10,08,05,15,5.40
2012,10,08,05,16,5.40
2012,10,08,05,17,5.40
2012,10,08,05,18,5.40
2012,10,08,05,19,5.40
2012,10,08,05,20,5.40
2012,10,08,05,21,5.40
2012,10,08,05,22,5.40
2012,10,08,05,23,5.40
2012,10,08,05,24,5.40
2012,10,08,05,25,5.40
2012,10,08,05,26,5.30
2012,10,08,05,27,5.30
2012,10,08,05,28,5.30
2012,10,08,05,29,5.30
2012,10,08,05,30,5.30
2012,10,08,05,31,5.30
2012,10,08,05,32,5.30
2012,10,08,05,33,5.30
2012,10,08,05,34,5.30
2012,10,08,05,35,5.30
2012,10,08,05,36,5.30
2012,10,08,05,37,5.30
2012,10,08,05,38,5.30
2012,10,08,05,39,5.30
2012,10,08,05,40,5.30
2012,10,08,05,41,5.30
2012,10,08,05,42,5.30
2012,10,08,05,43,5.30
2012,10,08,05,44,5.30
2012,10,08,05,45,5.30
2012,10,08,05,46,5.20
2012,10,08,05,47,5.30
2012,10,08,05,48,5.30
2012,10,08,05,49,5.30
2012,10,08,05,50,5.30
2012,10,08,05,51,5.30
2012,10,08,05,52,5.30
2012,10,08,05,53,5.30
2012,10,08,05,54,5.30
2012,10,08,05,55,5.30
2012,10,08,05,56,5.30
2012,10,08,05,57,5.30
2012,10,08,05,58,5.20
2012,10,08,05,59,5.20
2012,10,08,06,00,5.20
2012,10,08,06,01,5.20
2012,10,08,06,02,5.20
2012,10,08,06,03,5.20
2012,10,08,06,04,5.20
2012,10,08,06,05,5.10
2012,10,08,06,06,5.10
2012,10,08,06,07,5.10
2012,10,08,06,08,5.10
2012,10,08,06,09,5.10
2012,10,08,06,10,5.10
2012,10,08,06,11,5.10
2012,10,08,06,12,5.00
2012,10,08,06,13,5.00
2012,10,08,06,14,5.00
2012,10,08,06,15,5.00
2012,10,08,06,16,5.00
2012,10,08,06,17,5.00
2012,10,08,06,18,5.00
2012,10,08,06,19,5.00
2012,10,08,06,20,5.00
2012,10,08,06,21,5.00
2012,10,08,06,22,5.00
2012,10,08,06,23,5.00
2012,10,08,06,24,5.00
2012,10,08,06,25,4.90
2012,10,08,06,26,4.90
2012,10,08,06,27,4.90
2012,10,08,06,28,4.90
2012,10,08,06,29,4.90
2012,10,08,06,30,4.80
2012,10,08,06,31,4.80
2012,10,08,06,32,4.80
2012,10,08,06,33,4.80
2012,10,08,06,34,4.80
2012,10,08,06,35,4.80
2012,10,08,06,36,4.80
2012,10,08,06,37,4.80
2012,10,08,06,38,4.80
2012,10,08,06,39,4.80
2012,10,08,06,40,4.80
2012,10,08,06,41,4.80
2012,10,08,06,42,4.80
2012,10,08,06,43,4.80
2012,10,08,06,44,4.80
2012,10,08,06,45,4.80
2012,10,08,06,46,4.80
2012,10,08,06,47,4.80
2012,10,08,06,48,4.80
2012,10,08,06,49,4.80
2012,10,08,06,50,4.80
2012,10,08,06,51,4.80
2012,10,08,06,52,4.80
2012,10,08,06,53,4.80
2012,10,08,06,54,4.80
2012,10,08,06,55,4.80
2012,10,08,06,56,4.80
2012,10,08,06,57,4.80
2012,10,08,06,58,4.80
2012,10,08,06,59,4.80
2012,10,08,07,00,4.80
2012,10,08,07,01,4.80
2012,10,08,07,02,4.80
2012,10,08,07,03,4.80
2012,10,08,07,04,4.80
2012,10,08,07,05,4.80
2012,10,08,07,06,4.80
2012,10,08,07,07,4.70
2012,10,08,07,08,4.70
2012,10,08,07,09,4.70
2012,10,08,07,10,4.70
2012,10,08,07,11,4.70
2012,10,08,07,12,4.70
2012,10,08,07,13,4.70
2012,10,08,07,14,4.70
2012,10,08,07,15,4.70
2012,10,08,07,16,4.60
2012,10,08,07,17,4.60
2012,10,08,07,18,4.60
2012,10,08,07,19,4.60
2012,10,08,07,20,4.60
2012,10,08,07,21,4.60
2012,10,08,07,22,4.60
2012,10,08,07,23,4.60
2012,10,08,07,24,4.60
2012,10,08,07,25,4.60
2012,10,08,07,26,4.60
2012,10,08,07,27,4.60
2012,10,08,07,28,4.60
2012,10,08,07,29,4.50
2012,10,08,07,30,4.50
2012,10,08,07,31,4.50
2012,10,08,07,32,4.50
2012,10,08,07,33,4.50
2012,10,08,07,34,4.50
2012,10,08,07,35,4.50
2012,10,08,07,36,4.50
2012,10,08,07,37,4.50
2012,10,08,07,38,4.50
2012,10,08,07,39,4.50
2012,10,08,07,40,4.50
2012,10,08,07,41,4.50
2012,10,08,07,42,4.40
2012,10,08,07,43,4.40
2012,10,08,07,44,4.40
2012,10,08,07,45,4.40
2012,10,08,07,46,4.50
2012,10,08,07,47,4.40
2012,10,08,07,48,4.40
2012,10,08,07,49,4.50
2012,10,08,07,50,4.40
2012,10,08,07,51,4.40
2012,10,08,07,52,4.40
2012,10,08,07,53,4.40
2012,10,08,07,54,4.40
2012,10,08,07,55,4.40
2012,10,08,07,56,4.40
2012,10,08,07,57,4.40
2012,10,08,07,58,4.40
2012,10,08,07,59,4.40
2012,10,08,08,00,4.40
2012,10,08,08,01,4.40
2012,10,08,08,02,4.40
2012,10,08,08,03,4.30
2012,10,08,08,04,4.30
2012,10,08,08,05,4.40
2012,10,08,08,06,4.40
2012,10,08,08,07,4.40
2012,10,08,08,08,4.30
2012,10,08,08,09,4.40
2012,10,08,08,10,4.40
2012,10,08,08,11,4.40
2012,10,08,08,12,4.40
2012,10,08,08,13,4.40
2012,10,08,08,14,4.50
2012,10,08,08,15,4.50
2012,10,08,08,16,4.50
2012,10,08,08,17,4.60
2012,10,08,08,18,4.60
2012,10,08,08,19,4.60
2012,10,08,08,20,4.60
2012,10,08,08,21,4.60
2012,10,08,08,22,4.60
2012,10,08,08,23,4.70
2012,10,08,08,24,4.70
2012,10,08,08,25,4.70
2012,10,08,08,26,4.70
2012,10,08,08,27,4.80
2012,10,08,08,28,4.80
2012,10,08,08,29,4.90
2012,10,08,08,30,5.00
2012,10,08,08,31,5.00
2012,10,08,08,32,5.10
2012,10,08,08,33,5.10
2012,10,08,08,34,5.20
2012,10,08,08,35,5.20
2012,10,08,08,36,5.20
2012,10,08,08,37,5.30
2012,10,08,08,38,5.30
2012,10,08,08,39,5.30
2012,10,08,08,40,5.30
2012,10,08,08,41,5.40
2012,10,08,08,42,5.50
2012,10,08,08,43,5.50
2012,10,08,08,44,5.60
2012,10,08,08,45,5.60
2012,10,08,08,46,5.60
2012,10,08,08,47,5.70
2012,10,08,08,48,5.80
2012,10,08,08,49,5.80
2012,10,08,08,50,5.80
2012,10,08,08,51,5.90
2012,10,08,08,52,6.00
2012,10,08,08,53,6.10
2012,10,08,08,54,6.10
2012,10,08,08,55,6.10
2012,10,08,08,56,6.20
2012,10,08,08,57,6.20
2012,10,08,08,58,6.30
2012,10,08,08,59,6.30
2012,10,08,09,00,6.30
2012,10,08,09,01,6.40
2012,10,08,09,02,6.50
2012,10,08,09,03,6.50
2012,10,08,09,04,6.60
2012,10,08,09,05,6.70
2012,10,08,09,06,6.80
2012,10,08,09,07,6.80
2012,10,08,09,08,6.90
2012,10,08,09,09,7.00
2012,10,08,09,10,7.10
2012,10,08,09,11,7.20
2012,10,08,09,12,7.20
2012,10,08,09,13,7.30
2012,10,08,09,14,7.40
2012,10,08,09,15,7.40
2012,10,08,09,16,7.50
2012,10,08,09,17,7.70
2012,10,08,09,18,7.80
2012,10,08,09,19,7.90
2012,10,08,09,20,8.00
2012,10,08,09,21,8.10
2012,10,08,09,22,8.20
2012,10,08,09,23,8.20
2012,10,08,09,24,8.30
2012,10,08,09,25,8.40
2012,10,08,09,26,8.50
2012,10,08,09,27,8.50
2012,10,08,09,28,8.60
2012,10,08,09,29,8.70
2012,10,08,09,30,8.80
2012,10,08,09,31,8.80
2012,10,08,09,32,8.90
2012,10,08,09,33,8.90
2012,10,08,09,34,9.00
2012,10,08,09,35,9.00
2012,10,08,09,36,9.10
2012,10,08,09,37,9.10
2012,10,08,09,38,9.10
2012,10,08,09,39,9.20
2012,10,08,09,40,9.20
2012,10,08,09,41,9.30
2012,10,08,09,42,9.30
2012,10,08,09,43,9.40
2012,10,08,09,44,9.50
2012,10,08,09,45,9.60
2012,10,08,09,46,9.70
2012,10,08,09,47,9.80
2012,10,08,09,48,9.90
2012,10,08,09,49,10.00
2012,10,08,09,50,10.10
2012,10,08,09,51,10.10
2012,10,08,09,52,10.20
2012,10,08,09,53,10.30
2012,10,08,09,54,10.30
2012,10,08,09,55,10.40
2012,10,08,09,56,10.40
2012,10,08,09,57,10.50
2012,10,08,09,58,10.50
2012,10,08,09,59,10.60
2012,10,08,10,00,10.60
2012,10,08,10,01,10.70
2012,10,08,10,02,10.70
2012,10,08,10,03,10.70
2012,10,08,10,04,10.70
2012,10,08,10,05,10.70
2012,10,08,10,06,10.70
2012,10,08,10,07,10.70
2012,10,08,10,08,10.70
2012,10,08,10,09,10.70
2012,10,08,10,10,10.80
2012,10,08,10,11,10.80
2012,10,08,10,12,10.80
2012,10,08,10,13,10.80
2012,10,08,10,14,10.80
2012,10,08,10,15,10.90
2012,10,08,10,16,10.90
2012,10,08,10,17,10.90
2012,10,08,10,18,11.00
2012,10,08,10,19,11.00
2012,10,08,10,20,11.10
2012,10,08,10,21,11.10
2012,10,08,10,22,11.10
2012,10,08,10,23,11.20
2012,10,08,10,24,11.30
2012,10,08,10,25,11.40
2012,10,08,10,26,11.50
2012,10,08,10,27,11.60
2012,10,08,10,28,11.70
2012,10,08,10,29,11.80
2012,10,08,10,30,11.90
2012,10,08,10,31,12.00
2012,10,08,10,32,12.10
2012,10,08,10,33,12.10
2012,10,08,10,34,12.20
2012,10,08,10,35,12.20
2012,10,08,10,36,12.30
2012,10,08,10,37,12.30
2012,10,08,10,38,12.40
2012,10,08,10,39,12.40
2012,10,08,10,40,12.40
2012,10,08,10,41,12.50
2012,10,08,10,42,12.60
2012,10,08,10,43,12.70
2012,10,08,10,44,12.80
2012,10,08,10,45,12.80
2012,10,08,10,46,12.90
2012,10,08,10,47,13.00
2012,10,08,10,48,13.00
2012,10,08,10,49,13.10
2012,10,08,10,50,13.20
2012,10,08,10,51,13.20
2012,10,08,10,52,13.30
2012,10,08,10,53,13.30
2012,10,08,10,54,13.40
2012,10,08,10,55,13.40
2012,10,08,10,56,13.50
2012,10,08,10,57,13.60
2012,10,08,10,58,13.70
2012,10,08,10,59,13.80
2012,10,08,11,00,13.90
2012,10,08,11,01,14.00
2012,10,08,11,02,14.10
2012,10,08,11,03,14.10
2012,10,08,11,04,14.20
2012,10,08,11,05,14.30
2012,10,08,11,06,14.40
2012,10,08,11,07,14.50
2012,10,08,11,08,14.60
2012,10,08,11,09,14.70
2012,10,08,11,10,14.80
2012,10,08,11,11,14.90
2012,10,08,11,12,15.00
2012,10,08,11,13,15.10
2012,10,08,11,14,15.20
2012,10,08,11,15,15.30
2012,10,08,11,16,15.30
2012,10,08,11,17,15.40
2012,10,08,11,18,15.50
2012,10,08,11,19,15.60
2012,10,08,11,20,15.70
2012,10,08,11,21,15.80
2012,10,08,11,22,15.80
2012,10,08,11,23,15.90
2012,10,08,11,24,15.90
2012,10,08,11,25,15.90
2012,10,08,11,26,16.00
2012,10,08,11,27,16.10
2012,10,08,11,28,16.20
2012,10,08,11,29,16.30
2012,10,08,11,30,16.40
2012,10,08,11,31,16.50
2012,10,08,11,32,16.50
2012,10,08,11,33,16.60
2012,10,08,11,34,16.70
2012,10,08,11,35,16.80
2012,10,08,11,36,16.90
2012,10,08,11,37,16.90
2012,10,08,11,38,16.90
2012,10,08,11,39,16.90
2012,10,08,11,40,16.90
2012,10,08,11,41,16.90
2012,10,08,11,42,16.90
2012,10,08,11,43,16.90
2012,10,08,11,44,16.90
2012,10,08,11,45,17.00
2012,10,08,11,46,17.10
2012,10,08,11,47,17.20
2012,10,08,11,48,17.20
2012,10,08,11,49,17.30
2012,10,08,11,50,17.40
2012,10,08,11,51,17.40
2012,10,08,11,52,17.40
2012,10,08,11,53,17.30
2012,10,08,11,54,17.30
2012,10,08,11,55,17.30
2012,10,08,11,56,17.40
2012,10,08,11,57,17.40
2012,10,08,11,58,17.50
2012,10,08,11,59,17.50
2012,10,08,12,00,17.60
2012,10,08,12,01,17.60
2012,10,08,12,02,17.70
2012,10,08,12,03,17.70
2012,10,08,12,04,17.80
2012,10,08,12,05,17.80
2012,10,08,12,06,17.80
2012,10,08,12,07,17.90
2012,10,08,12,08,17.90
2012,10,08,12,09,17.90
2012,10,08,12,10,17.90
2012,10,08,12,11,18.00
2012,10,08,12,12,18.10
2012,10,08,12,13,18.10
2012,10,08,12,14,18.20
2012,10,08,12,15,18.20
2012,10,08,12,16,18.20
2012,10,08,12,17,18.30
2012,10,08,12,18,18.30
2012,10,08,12,19,18.30
2012,10,08,12,20,18.30
2012,10,08,12,21,18.40
2012,10,08,12,22,18.40
2012,10,08,12,23,18.50
2012,10,08,12,24,18.50
2012,10,08,12,25,18.60
2012,10,08,12,26,18.70
2012,10,08,12,27,18.70
2012,10,08,12,28,18.80
2012,10,08,12,29,18.80
2012,10,08,12,30,18.90
2012,10,08,12,31,18.90
2012,10,08,12,32,18.90
2012,10,08,12,33,18.90
2012,10,08,12,34,18.90
2012,10,08,12,35,18.90
2012,10,08,12,36,19.00
2012,10,08,12,37,18.90
2012,10,08,12,38,18.90
2012,10,08,12,39,19.00
2012,10,08,12,40,19.00
2012,10,08,12,41,19.00
2012,10,08,12,42,19.10
2012,10,08,12,43,19.10
2012,10,08,12,44,19.10
2012,10,08,12,45,19.20
2012,10,08,12,46,19.30
2012,10,08,12,47,19.30
2012,10,08,12,48,19.30
2012,10,08,12,49,19.40
2012,10,08,12,50,19.50
2012,10,08,12,51,19.50
2012,10,08,12,52,19.60
2012,10,08,12,53,19.70
2012,10,08,12,54,19.70
2012,10,08,12,55,19.80
2012,10,08,12,56,19.80
2012,10,08,12,57,19.80
2012,10,08,12,58,19.90
2012,10,08,12,59,19.90
2012,10,08,13,00,19.90
2012,10,08,13,01,20.00
2012,10,08,13,02,20.00
2012,10,08,13,03,20.10
2012,10,08,13,04,20.10
2012,10,08,13,05,20.20
2012,10,08,13,06,20.20
2012,10,08,13,07,20.20
2012,10,08,13,08,20.20
2012,10,08,13,09,20.20
2012,10,08,13,10,20.20
2012,10,08,13,11,20.30
2012,10,08,13,12,20.30
2012,10,08,13,13,20.40
2012,10,08,13,14,20.50
2012,10,08,13,15,20.60
2012,10,08,13,16,20.70
2012,10,08,13,17,20.70
2012,10,08,13,18,20.70
2012,10,08,13,19,20.80
2012,10,08,13,20,20.90
2012,10,08,13,21,20.90
2012,10,08,13,22,21.00
2012,10,08,13,23,21.10
2012,10,08,13,24,21.20
2012,10,08,13,25,21.20
2012,10,08,13,26,21.30
2012,10,08,13,27,21.40
2012,10,08,13,28,21.40
2012,10,08,13,29,21.50
2012,10,08,13,30,21.50
2012,10,08,13,31,21.60
2012,10,08,13,32,21.60
2012,10,08,13,33,21.70
2012,10,08,13,34,21.70
2012,10,08,13,35,21.80
2012,10,08,13,36,21.80
2012,10,08,13,37,21.80
2012,10,08,13,38,21.90
2012,10,08,13,39,22.00
2012,10,08,13,40,22.00
2012,10,08,13,41,22.10
2012,10,08,13,42,22.20
2012,10,08,13,43,22.20
2012,10,08,13,44,22.20
2012,10,08,13,45,22.30
2012,10,08,13,46,22.30
2012,10,08,13,47,22.30
2012,10,08,13,48,22.30
2012,10,08,13,49,22.30
2012,10,08,13,50,22.40
2012,10,08,13,51,22.30
2012,10,08,13,52,22.30
2012,10,08,13,53,22.30
2012,10,08,13,54,22.20
2012,10,08,13,55,22.20
2012,10,08,13,56,22.20
2012,10,08,13,57,22.20
2012,10,08,13,58,22.10
2012,10,08,13,59,22.10
2012,10,08,14,00,22.10
2012,10,08,14,01,22.10
2012,10,08,14,02,22.10
2012,10,08,14,03,22.10
2012,10,08,14,04,22.10
2012,10,08,14,05,22.10
2012,10,08,14,06,22.10
2012,10,08,14,07,22.10
2012,10,08,14,08,22.10
2012,10,08,14,09,22.10
2012,10,08,14,10,22.10
2012,10,08,14,11,22.10
2012,10,08,14,12,22.20
2012,10,08,14,13,22.20
2012,10,08,14,14,22.30
2012,10,08,14,15,22.30
2012,10,08,14,16,22.30
2012,10,08,14,17,22.30
2012,10,08,14,18,22.30
2012,10,08,14,19,22.30
2012,10,08,14,20,22.30
2012,10,08,14,21,22.30
2012,10,08,14,22,22.20
2012,10,08,14,23,22.20
2012,10,08,14,24,22.20
2012,10,08,14,25,22.10
2012,10,08,14,26,22.10
2012,10,08,14,27,22.10
2012,10,08,14,28,22.10
2012,10,08,14,29,22.10
2012,10,08,14,30,22.10
2012,10,08,14,31,22.10
2012,10,08,14,32,22.00
2012,10,08,14,33,21.90
2012,10,08,14,34,21.90
2012,10,08,14,35,21.80
2012,10,08,14,36,21.80
2012,10,08,14,37,21.80
2012,10,08,14,38,21.90
2012,10,08,14,39,21.90
2012,10,08,14,40,21.90
2012,10,08,14,41,22.00
2012,10,08,14,42,22.00
2012,10,08,14,43,22.10
2012,10,08,14,44,22.10
2012,10,08,14,45,22.10
2012,10,08,14,46,22.20
2012,10,08,14,47,22.20
2012,10,08,14,48,22.20
2012,10,08,14,49,22.20
2012,10,08,14,50,22.20
2012,10,08,14,51,22.20
2012,10,08,14,52,22.20
2012,10,08,14,53,22.20
2012,10,08,14,54,22.20
2012,10,08,14,55,22.20
2012,10,08,14,56,22.20
2012,10,08,14,57,22.30
2012,10,08,14,58,22.30
2012,10,08,14,59,22.30
2012,10,08,15,00,22.30
2012,10,08,15,01,22.40
2012,10,08,15,02,22.50
2012,10,08,15,03,22.60
2012,10,08,15,04,22.70
2012,10,08,15,05,22.80
2012,10,08,15,06,22.80
2012,10,08,15,07,22.80
2012,10,08,15,08,22.90
2012,10,08,15,09,22.90
2012,10,08,15,10,22.90
2012,10,08,15,11,23.00
2012,10,08,15,12,23.10
2012,10,08,15,13,23.10
2012,10,08,15,14,23.20
2012,10,08,15,15,23.20
2012,10,08,15,16,23.20
2012,10,08,15,17,23.20
2012,10,08,15,18,23.30
2012,10,08,15,19,23.30
2012,10,08,15,20,23.30
2012,10,08,15,21,23.40
2012,10,08,15,22,23.40
2012,10,08,15,23,23.40
2012,10,08,15,24,23.50
2012,10,08,15,25,23.50
2012,10,08,15,26,23.60
2012,10,08,15,27,23.70
2012,10,08,15,28,23.70
2012,10,08,15,29,23.70
2012,10,08,15,30,23.70
2012,10,08,15,31,23.70
2012,10,08,15,32,23.80
2012,10,08,15,33,23.80
2012,10,08,15,34,23.80
2012,10,08,15,35,23.90
2012,10,08,15,36,23.90
2012,10,08,15,37,23.90
2012,10,08,15,38,24.00
2012,10,08,15,39,23.90
2012,10,08,15,40,23.90
2012,10,08,15,41,23.90
2012,10,08,15,42,23.90
2012,10,08,15,43,23.90
2012,10,08,15,44,23.80
2012,10,08,15,45,23.80
2012,10,08,15,46,23.80
2012,10,08,15,47,23.80
2012,10,08,15,48,23.70
2012,10,08,15,49,23.70
2012,10,08,15,50,23.80
2012,10,08,15,51,23.80
2012,10,08,15,52,23.80
2012,10,08,15,53,23.80
2012,10,08,15,54,23.70
2012,10,08,15,55,23.70
2012,10,08,15,56,23.80
2012,10,08,15,57,23.80
2012,10,08,15,58,23.80
2012,10,08,15,59,23.90
2012,10,08,16,00,23.90
2012,10,08,16,01,23.90
2012,10,08,16,02,24.00
2012,10,08,16,03,24.00
2012,10,08,16,04,24.10
2012,10,08,16,05,24.10
2012,10,08,16,06,24.10
2012,10,08,16,07,24.10
2012,10,08,16,08,24.10
2012,10,08,16,09,24.10
2012,10,08,16,10,24.10
2012,10,08,16,11,24.00
2012,10,08,16,12,24.00
2012,10,08,16,13,24.00
2012,10,08,16,14,23.90
2012,10,08,16,15,23.90
2012,10,08,16,16,23.90
2012,10,08,16,17,23.90
2012,10,08,16,18,23.90
2012,10,08,16,19,23.90
2012,10,08,16,20,23.90
2012,10,08,16,21,23.90
2012,10,08,16,22,24.00
2012,10,08,16,23,24.10
2012,10,08,16,24,24.10
2012,10,08,16,25,24.10
2012,10,08,16,26,24.10
2012,10,08,16,27,24.10
2012,10,08,16,28,24.10
2012,10,08,16,29,24.20
2012,10,08,16,30,24.20
2012,10,08,16,31,24.10
2012,10,08,16,32,24.10
2012,10,08,16,33,24.00
2012,10,08,16,34,24.00
2012,10,08,16,35,23.90
2012,10,08,16,36,23.90
2012,10,08,16,37,23.90
2012,10,08,16,38,23.90
2012,10,08,16,39,23.90
2012,10,08,16,40,24.00
2012,10,08,16,41,24.00
2012,10,08,16,42,24.00
2012,10,08,16,43,24.00
2012,10,08,16,44,23.90
2012,10,08,16,45,23.80
2012,10,08,16,46,23.70
2012,10,08,16,47,23.60
2012,10,08,16,48,23.50
2012,10,08,16,49,23.50
2012,10,08,16,50,23.40
2012,10,08,16,51,23.40
2012,10,08,16,52,23.30
2012,10,08,16,53,23.20
2012,10,08,16,54,23.10
2012,10,08,16,55,23.10
2012,10,08,16,56,23.10
2012,10,08,16,57,23.00
2012,10,08,16,58,22.90
2012,10,08,16,59,22.80
2012,10,08,17,00,22.80
2012,10,08,17,01,22.80
2012,10,08,17,02,22.80
2012,10,08,17,03,22.80
2012,10,08,17,04,22.80
2012,10,08,17,05,22.80
2012,10,08,17,06,22.80
2012,10,08,17,07,22.70
2012,10,08,17,08,22.70
2012,10,08,17,09,22.60
2012,10,08,17,10,22.60
2012,10,08,17,11,22.60
2012,10,08,17,12,22.50
2012,10,08,17,13,22.50
2012,10,08,17,14,22.40
2012,10,08,17,15,22.30
2012,10,08,17,16,22.30
2012,10,08,17,17,22.30
2012,10,08,17,18,22.30
2012,10,08,17,19,22.20
2012,10,08,17,20,22.20
2012,10,08,17,21,22.20
2012,10,08,17,22,22.20
2012,10,08,17,23,22.20
2012,10,08,17,24,22.10
2012,10,08,17,25,22.10
2012,10,08,17,26,22.10
2012,10,08,17,27,22.00
2012,10,08,17,28,22.00
2012,10,08,17,29,22.10
2012,10,08,17,30,22.10
2012,10,08,17,31,22.10
2012,10,08,17,32,22.10
2012,10,08,17,33,22.00
2012,10,08,17,34,22.00
2012,10,08,17,35,21.90
2012,10,08,17,36,21.90
2012,10,08,17,37,21.90
2012,10,08,17,38,21.80
2012,10,08,17,39,21.70
2012,10,08,17,40,21.70
2012,10,08,17,41,21.60
2012,10,08,17,42,21.50
2012,10,08,17,43,21.50
2012,10,08,17,44,21.40
2012,10,08,17,45,21.30